Change the Weather History Date:

Tuesday, July 16, 2013

  Actual Average Record
Temperature  
Mean Temperature 58 °F -  
Max Temperature 66 °F 69 °F 80 °F (1993)
Min Temperature 51 °F 48 °F 32 °F (1976)
Degree Days  
Heating Degree Days 6    
Growing Degree Days 8 (Base 50)    
Moisture  
Dew Point 51 °F    
Average Humidity 74    
Maximum Humidity 94    
Minimum Humidity 59    
Precipitation  
Precipitation 0.02 in - - ()
Sea Level Pressure  
Sea Level Pressure 30.20 in    
Wind  
Wind Speed 1 mph (WSW)    
Max Wind Speed 7 mph    
Max Gust Speed -    
Visibility 9 miles    
Events      
Averages and records for this station are not official NWS values.
T = Trace of Precipitation, MM = Missing Value Source: NWS Daily Summary

Daily Weather History Graph

Daily Weather History Graph

Search for Another Location

Airport or City:

Trip Planner

Search our weather history database for the weather conditions in past years. The results will help you decide how hot, cold, wet, or windy it might be!

Date:

Astronomy

Jul. 16, 2013 Rise Set
Actual Time 4:49 AM AKDT 11:17 PM AKDT
Civil Twilight 3:12 AM AKDT 12:51 AM AKDT
Nautical Twilight Sun does not rise Sun does not rise
Astronomical Twilight Sun does not rise Sun does not rise
Moon 4:23 PM AKDT (7/16) 12:26 AM AKDT (7/16)
Length of Visible Light 21h 38m
Length of Day
18h 28m
First Quarter, 58% of the Moon is Illuminated
Jul 16
First Quarter
Jul 22
Full
Jul 29
Last Quarter
Aug 6
New
Aug 14
First Quarter

Hourly Weather History & Observations

Time (AKDT) Temp. Dew Point Humidity Pressure Visibility Wind Dir Wind Speed Gust Speed Precip Events Conditions
12:16 AM 55.4 °F 50.0 °F 82% 30.25 in 10.0 mi Calm Calm - N/A   Scattered Clouds
12:36 AM 53.6 °F 50.0 °F 88% 30.25 in 10.0 mi Calm Calm - N/A   Mostly Cloudy
12:56 AM 53.6 °F 50.0 °F 88% 30.25 in 10.0 mi Calm Calm - N/A   Overcast
1:16 AM 53.6 °F 50.0 °F 88% 30.25 in 10.0 mi Calm Calm - N/A   Overcast
1:36 AM 55.4 °F 50.0 °F 82% 30.25 in 10.0 mi Calm Calm - 0.01 in   Overcast
1:56 AM 55.4 °F 51.8 °F 88% 30.25 in 10.0 mi Calm Calm - 0.01 in   Overcast
2:16 AM 53.6 °F 50.0 °F 88% 30.25 in 10.0 mi Calm Calm - 0.01 in   Overcast
2:36 AM 53.6 °F 51.8 °F 94% 30.25 in 10.0 mi Calm Calm - 0.01 in   Overcast
2:56 AM 53.6 °F 50.0 °F 88% 30.25 in 10.0 mi Calm Calm - 0.01 in   Overcast
3:16 AM 53.6 °F 50.0 °F 88% 30.24 in 6.0 mi Calm Calm - N/A   Overcast
3:36 AM 53.6 °F 48.2 °F 82% 30.24 in 7.0 mi Calm Calm - N/A   Overcast
3:56 AM 53.6 °F 48.2 °F 82% 30.23 in 10.0 mi Calm Calm - N/A   Overcast
4:16 AM 53.6 °F 48.2 °F 82% 30.23 in 10.0 mi Calm Calm - N/A   Overcast
4:36 AM 51.8 °F 48.2 °F 88% 30.23 in 3.0 mi Calm Calm - N/A   Overcast
4:56 AM 51.8 °F 48.2 °F 88% 30.23 in 3.0 mi Calm Calm - N/A   Overcast
5:16 AM 51.8 °F 48.2 °F 88% 30.23 in 2.5 mi Calm Calm - N/A   Overcast
5:36 AM 51.8 °F 48.2 °F 88% 30.23 in 8.0 mi Calm Calm - N/A   Overcast
5:56 AM 51.8 °F 48.2 °F 88% 30.23 in 8.0 mi Calm Calm - N/A   Overcast
6:16 AM 51.8 °F 48.2 °F 88% 30.23 in 5.0 mi Calm Calm - N/A   Overcast
6:36 AM 53.6 °F 48.2 °F 82% 30.23 in 5.0 mi Calm Calm - N/A   Overcast
6:56 AM 53.6 °F 50.0 °F 88% 30.23 in 8.0 mi Calm Calm - N/A   Overcast
7:16 AM 53.6 °F 50.0 °F 88% 30.23 in 10.0 mi Calm Calm - N/A   Overcast
7:36 AM 53.6 °F 50.0 °F 88% 30.23 in 10.0 mi Calm Calm - N/A   Overcast
7:56 AM 55.4 °F 50.0 °F 82% 30.24 in 10.0 mi Calm Calm - N/A   Overcast
8:16 AM 55.4 °F 51.8 °F 88% 30.23 in 10.0 mi Calm Calm - N/A   Overcast
8:36 AM 55.4 °F 48.2 °F 77% 30.23 in 10.0 mi Calm Calm - N/A   Overcast
8:56 AM 55.4 °F 48.2 °F 77% 30.23 in 10.0 mi Calm Calm - N/A   Overcast
9:16 AM 55.4 °F 50.0 °F 82% 30.23 in 10.0 mi Calm Calm - N/A   Overcast
9:36 AM 57.2 °F 48.2 °F 72% 30.23 in 10.0 mi Calm Calm - N/A   Overcast
9:56 AM 57.2 °F 48.2 °F 72% 30.22 in 10.0 mi Calm Calm - N/A   Overcast
10:16 AM 59.0 °F 48.2 °F 67% 30.23 in 10.0 mi NW 4.6 mph - N/A   Overcast
10:36 AM 59.0 °F 50.0 °F 72% 30.23 in 10.0 mi NNW 4.6 mph - N/A   Overcast
10:56 AM 60.8 °F 50.0 °F 68% 30.23 in 10.0 mi NNW 3.5 mph - N/A   Overcast
11:16 AM 60.8 °F 50.0 °F 68% 30.22 in 10.0 mi WNW 3.5 mph - N/A   Overcast
11:36 AM 60.8 °F 51.8 °F 72% 30.22 in 10.0 mi WSW 4.6 mph - N/A   Overcast
11:56 AM 60.8 °F 51.8 °F 72% 30.21 in 10.0 mi Calm Calm - N/A   Overcast
12:16 PM 62.6 °F 51.8 °F 68% 30.21 in 10.0 mi WSW 4.6 mph - N/A   Mostly Cloudy
12:36 PM 62.6 °F 51.8 °F 68% 30.21 in 10.0 mi Calm Calm - N/A   Partly Cloudy
12:56 PM 64.4 °F 51.8 °F 64% 30.21 in 10.0 mi Calm Calm - N/A   Mostly Cloudy
1:16 PM 64.4 °F 51.8 °F 64% 30.20 in 10.0 mi Calm Calm - N/A   Mostly Cloudy
1:36 PM 64.4 °F 51.8 °F 64% 30.19 in 10.0 mi Calm Calm - N/A   Mostly Cloudy
1:56 PM 62.6 °F 51.8 °F 68% 30.19 in 10.0 mi West 5.8 mph - N/A   Overcast
2:16 PM 62.6 °F 51.8 °F 68% 30.19 in 10.0 mi SW 4.6 mph - N/A   Overcast
2:36 PM 64.4 °F 51.8 °F 64% 30.19 in 10.0 mi Calm Calm - N/A   Overcast
2:56 PM 62.6 °F 51.8 °F 68% 30.19 in 10.0 mi WSW 3.5 mph - N/A   Overcast
3:16 PM 62.6 °F 51.8 °F 68% 30.18 in 10.0 mi WSW 6.9 mph - N/A   Overcast
3:36 PM 64.4 °F 51.8 °F 64% 30.18 in 10.0 mi SW 3.5 mph - N/A   Overcast
3:56 PM 64.4 °F 51.8 °F 64% 30.18 in 10.0 mi WSW 5.8 mph - N/A   Overcast
4:16 PM 64.4 °F 51.8 °F 64% 30.18 in 10.0 mi West 6.9 mph - N/A   Overcast
4:36 PM 64.4 °F 51.8 °F 64% 30.18 in 10.0 mi WSW 6.9 mph - N/A   Overcast
4:56 PM 64.4 °F 51.8 °F 64% 30.17 in 10.0 mi WSW 4.6 mph - N/A   Overcast
5:16 PM 66.2 °F 51.8 °F 60% 30.17 in 10.0 mi WNW 4.6 mph - N/A   Mostly Cloudy
5:36 PM 66.2 °F 51.8 °F 60% 30.16 in 10.0 mi Calm Calm - N/A   Scattered Clouds
5:56 PM 66.2 °F 51.8 °F 60% 30.16 in 10.0 mi West 6.9 mph - N/A   Mostly Cloudy
6:16 PM 64.4 °F 51.8 °F 64% 30.16 in 10.0 mi SSW 4.6 mph - N/A   Overcast
6:36 PM 64.4 °F 51.8 °F 64% 30.15 in 10.0 mi WSW 4.6 mph - N/A   Overcast
6:56 PM 64.4 °F 51.8 °F 64% 30.15 in 10.0 mi SSW 3.5 mph - N/A   Overcast
7:16 PM 64.4 °F 51.8 °F 64% 30.15 in 10.0 mi Calm Calm - N/A   Scattered Clouds
7:36 PM 64.4 °F 51.8 °F 64% 30.15 in 10.0 mi South 5.8 mph - N/A   Mostly Cloudy
7:56 PM 64.4 °F 51.8 °F 64% 30.14 in 10.0 mi South 4.6 mph - N/A   Overcast
8:16 PM 64.4 °F 51.8 °F 64% 30.14 in 10.0 mi SSW 3.5 mph - N/A   Overcast
8:36 PM 64.4 °F 50.0 °F 59% 30.14 in 10.0 mi SSE 4.6 mph - N/A   Overcast
8:56 PM 64.4 °F 50.0 °F 59% 30.14 in 10.0 mi South 3.5 mph - N/A   Overcast
9:16 PM 62.6 °F 51.8 °F 68% 30.14 in 10.0 mi South 3.5 mph - N/A   Mostly Cloudy
9:36 PM 62.6 °F 51.8 °F 68% 30.14 in 10.0 mi South 4.6 mph - N/A   Overcast
9:56 PM 60.8 °F 51.8 °F 72% 30.14 in 10.0 mi Calm Calm - N/A   Scattered Clouds
10:16 PM 60.8 °F 51.8 °F 72% 30.14 in 10.0 mi SW 3.5 mph - N/A   Mostly Cloudy
10:36 PM 60.8 °F 50.0 °F 68% 30.14 in 10.0 mi Calm Calm - N/A   Mostly Cloudy
10:56 PM 60.8 °F 50.0 °F 68% 30.14 in 10.0 mi West 4.6 mph - N/A   Mostly Cloudy
11:16 PM 59.0 °F 51.8 °F 77% 30.14 in 10.0 mi Calm Calm - N/A   Overcast
11:36 PM 60.8 °F 50.0 °F 68% 30.14 in 10.0 mi Calm Calm - N/A   Overcast
11:56 PM 57.2 °F 51.8 °F 82% 30.14 in 10.0 mi Calm Calm - N/A   Overcast